Satellite: RESURS Catalog number: 25394 Epoch time: 09253.59106061 Element set: 306 Inclination: 098.3348 deg RA of node: 281.5718 deg Eccentricity: 0.0001668 Arg of perigee: 359.5062 deg Mean anomaly: 000.6117 deg Mean motion: 14.24188996 rev/day Decay rate: -2.3e-07 rev/day^2 Epoch rev: 58055 Checksum: 303
Satellite: FENGYUN1 Catalog number: 25730 Epoch time: 09252.92134469 Element set: 0892 Inclination: 098.7604 deg RA of node: 220.5600 deg Eccentricity: 0.0022303 Arg of perigee: 339.5931 deg Mean anomaly: 020.4345 deg Mean motion: 14.07974223 rev/day Decay rate: 2.15e-06 rev/day^2 Epoch rev: 53224 Checksum: 275
Satellite: OKEAN-0 Catalog number: 25860 Epoch time: 09253.79730791 Element set: 780 Inclination: 097.7956 deg RA of node: 231.6172 deg Eccentricity: 0.0000601 Arg of perigee: 066.5932 deg Mean anomaly: 293.5336 deg Mean motion: 14.73586790 rev/day Decay rate: 1.5e-07 rev/day^2 Epoch rev: 54575 Checksum: 325
Satellite: NOAA-16 Catalog number: 26536 Epoch time: 09252.93922200 Element set: 0555 Inclination: 099.1796 deg RA of node: 258.6696 deg Eccentricity: 0.0011123 Arg of perigee: 047.7454 deg Mean anomaly: 312.4672 deg Mean motion: 14.12531265 rev/day Decay rate: 8.8e-07 rev/day^2 Epoch rev: 46226 Checksum: 313
Satellite: NOAA-17 Catalog number: 27453 Epoch time: 09252.73503280 Element set: 0551 Inclination: 098.4757 deg RA of node: 308.8590 deg Eccentricity: 0.0010946 Arg of perigee: 233.6722 deg Mean anomaly: 126.3429 deg Mean motion: 14.24089264 rev/day Decay rate: 1.0e-08 rev/day^2 Epoch rev: 37478 Checksum: 313
Satellite: NOAA-18 Catalog number: 28654 Epoch time: 09252.69857162 Element set: 0037 Inclination: 098.9118 deg RA of node: 195.3020 deg Eccentricity: 0.0015157 Arg of perigee: 122.2512 deg Mean anomaly: 238.0134 deg Mean motion: 14.11282853 rev/day Decay rate: 5.5e-07 rev/day^2 Epoch rev: 22187 Checksum: 293
Satellite: NOAA-19 Catalog number: 33591 Epoch time: 09252.69672792 Element set: 0242 Inclination: 098.7515 deg RA of node: 196.2798 deg Eccentricity: 0.0014429 Arg of perigee: 008.3237 deg Mean anomaly: 351.8170 deg Mean motion: 14.10983453 rev/day Decay rate: 1.27e-06 rev/day^2 Epoch rev: 03035 Checksum: 319
/EX SB KEPS @ AMSAT $ORB09253.M Orbital Elements 09253.MISC
HR AMSAT ORBITAL ELEMENTS FOR MANNED AND MISCELLANEOUS SATELLITES FROM WA5QGD FORT WORTH,TX September 10, 2009 Send Subscribe/unsubscribe to KEPS at http://www.amsat.org/mailman/listinfo/keps BID: ORB09253.M TO ALL RADIO AMATEURS BT
Satellite: HUBBLE Catalog number: 20580 Epoch time: 09250.43949751 Element set: 0443 Inclination: 028.4717 deg RA of node: 285.4688 deg Eccentricity: 0.0003283 Arg of perigee: 079.4269 deg Mean anomaly: 280.6769 deg Mean motion: 15.00827500 rev/day Decay rate: 3.05e-06 rev/day^2 Epoch rev: 86222 Checksum: 310
Satellite: ISS Catalog number: 25544 Epoch time: 09252.95216194 Element set: 0578 Inclination: 051.6388 deg RA of node: 231.6952 deg Eccentricity: 0.0009147 Arg of perigee: 073.4975 deg Mean anomaly: 037.1917 deg Mean motion: 15.74020900 rev/day Decay rate: 7.455e-05 rev/day^2 Epoch rev: 61930 Checksum: 314
Satellite: CO-58 Catalog number: 28895 Epoch time: 09253.19575857 Element set: 391 Inclination: 098.0456 deg RA of node: 141.3769 deg Eccentricity: 0.0019019 Arg of perigee: 082.0679 deg Mean anomaly: 278.2692 deg Mean motion: 14.59793790 rev/day Decay rate: 1.88e-06 rev/day^2 Epoch rev: 20613 Checksum: 368
Satellite: FALCON Catalog number: 30776 Epoch time: 09252.51287866 Element set: 0665 Inclination: 035.4352 deg RA of node: 307.7728 deg Eccentricity: 0.0001908 Arg of perigee: 303.9452 deg Mean anomaly: 056.1083 deg Mean motion: 15.03297769 rev/day Decay rate: 2.28e-06 rev/day^2 Epoch rev: 13779 Checksum: 321
Satellite: MAST Catalog number: 31126 Epoch time: 09252.70771229 Element set: 681 Inclination: 097.9803 deg RA of node: 303.6067 deg Eccentricity: 0.0095180 Arg of perigee: 018.1387 deg Mean anomaly: 342.3174 deg Mean motion: 14.53515591 rev/day Decay rate: 8.3e-07 rev/day^2 Epoch rev: 12731 Checksum: 291
Satellite: CAPE1 Catalog number: 31130 Epoch time: 09253.58790488 Element set: 691 Inclination: 097.9809 deg RA of node: 302.4404 deg Eccentricity: 0.0103381 Arg of perigee: 021.5204 deg Mean anomaly: 339.0295 deg Mean motion: 14.52085147 rev/day Decay rate: 1.82e-06 rev/day^2 Epoch rev: 12708 Checksum: 288
Satellite: COMPASS Catalog number: 32787 Epoch time: 09253.66778606 Element set: 459 Inclination: 097.9351 deg RA of node: 316.7364 deg Eccentricity: 0.0017042 Arg of perigee: 113.7974 deg Mean anomaly: 246.5030 deg Mean motion: 14.81650849 rev/day Decay rate: 7.5e-07 rev/day^2 Epoch rev: 7410 Checksum: 320
Satellite: AAUSAT2 Catalog number: 32788 Epoch time: 09253.83110579 Element set: 455 Inclination: 097.9351 deg RA of node: 316.9711 deg Eccentricity: 0.0016706 Arg of perigee: 112.5628 deg Mean anomaly: 247.7316 deg Mean motion: 14.81777365 rev/day Decay rate: 3.06e-06 rev/day^2 Epoch rev: 7413 Checksum: 316
Satellite: DO-64 Catalog number: 32789 Epoch time: 09252.83998116 Element set: 469 Inclination: 097.9393 deg RA of node: 316.2070 deg Eccentricity: 0.0016894 Arg of perigee: 115.3819 deg Mean anomaly: 244.9132 deg Mean motion: 14.81784742 rev/day Decay rate: 2.66e-06 rev/day^2 Epoch rev: 7398 Checksum: 358
Satellite: CO-66 Catalog number: 32791 Epoch time: 09251.69438811 Element set: 0456 Inclination: 097.9371 deg RA of node: 314.8144 deg Eccentricity: 0.0017126 Arg of perigee: 116.8146 deg Mean anomaly: 243.4815 deg Mean motion: 14.81475191 rev/day Decay rate: 3.46e-06 rev/day^2 Epoch rev: 07377 Checksum: 326
Satellite: RS-30 Catalog number: 32953 Epoch time: 09253.34775993 Element set: 401 Inclination: 082.5015 deg RA of node: 203.6545 deg Eccentricity: 0.0019735 Arg of perigee: 357.5593 deg Mean anomaly: 002.5388 deg Mean motion: 12.43003026 rev/day Decay rate: 1.0e-07 rev/day^2 Epoch rev: 5897 Checksum: 292
Satellite: TACSAT-3 Catalog number: 35001 Epoch time: 09253.67270437 Element set: 93 Inclination: 040.4553 deg RA of node: 089.3388 deg Eccentricity: 0.0023200 Arg of perigee: 075.2496 deg Mean anomaly: 285.0900 deg Mean motion: 15.39125688 rev/day Decay rate: 1.381e-05 rev/day^2 Epoch rev: 1752 Checksum: 288
Satellite: PHARMSAT Catalog number: 35002 Epoch time: 09253.94039153 Element set: 91 Inclination: 040.4679 deg RA of node: 087.0735 deg Eccentricity: 0.0025832 Arg of perigee: 081.7510 deg Mean anomaly: 278.6232 deg Mean motion: 15.39883379 rev/day Decay rate: 1.390e-05 rev/day^2 Epoch rev: 1756 Checksum: 301
Satellite: HAWKSAT1 Catalog number: 35003 Epoch time: 09253.64222498 Element set: 95 Inclination: 040.4602 deg RA of node: 088.2368 deg Eccentricity: 0.0025716 Arg of perigee: 083.3049 deg Mean anomaly: 277.0667 deg Mean motion: 15.40576210 rev/day Decay rate: 2.799e-05 rev/day^2 Epoch rev: 1753 Checksum: 298
Satellite: CP6 Catalog number: 35004 Epoch time: 09253.64140784 Element set: 89 Inclination: 040.4616 deg RA of node: 088.2352 deg Eccentricity: 0.0025812 Arg of perigee: 083.0532 deg Mean anomaly: 277.3191 deg Mean motion: 15.40628992 rev/day Decay rate: 3.286e-05 rev/day^2 Epoch rev: 1752 Checksum: 294
Satellite: AEROCUB3 Catalog number: 35005 Epoch time: 09253.65503492 Element set: 89 Inclination: 040.4740 deg RA of node: 088.4766 deg Eccentricity: 0.0025317 Arg of perigee: 081.5510 deg Mean anomaly: 278.8156 deg Mean motion: 15.40427719 rev/day Decay rate: 3.213e-05 rev/day^2 Epoch rev: 1752 Checksum: 291
Satellite: DRAGNSAT Catalog number: 35690 Epoch time: 09253.99643289 Element set: 40 Inclination: 051.6422 deg RA of node: 223.8550 deg Eccentricity: 0.0002346 Arg of perigee: 213.9695 deg Mean anomaly: 146.1148 deg Mean motion: 15.82088376 rev/day Decay rate: 1.7891e-04 rev/day^2 Epoch rev: 672 Checksum: 312
Satellite: POLLUX Catalog number: 35693 Epoch time: 09253.37891481 Element set: 41 Inclination: 051.6396 deg RA of node: 227.2380 deg Eccentricity: 0.0003534 Arg of perigee: 144.2393 deg Mean anomaly: 215.8863 deg Mean motion: 15.81465030 rev/day Decay rate: 1.7017e-04 rev/day^2 Epoch rev: 659 Checksum: 295
Satellite: CASTOR Catalog number: 35694 Epoch time: 09253.83329502 Element set: 40 Inclination: 051.6404 deg RA of node: 225.0289 deg Eccentricity: 0.0003862 Arg of perigee: 158.6084 deg Mean anomaly: 201.5076 deg Mean motion: 15.80695457 rev/day Decay rate: 8.665e-05 rev/day^2 Epoch rev: 666 Checksum: 303
/EX